AUA25Y EDDH-LOWW

Flight info

Callsign AUA25Y
Flight time 1h 31m
Altitude 37000
Route RAMAR6G RAMAR Z998 RATMO DCT HDO DCT EVIKU DCT BITSI DCT MIKOV MIKOV8W
Aircraft A320/M-SDE3FGHIRWY/LB1

Departure

Time 2026-05-06 18:43
Airport Hamburg Helmut Schmidt Airport (EDDH)

Arrival

Time 2026-05-06 20:15
Airport Vienna International Airport (LOWW)
Time Latitude Longitude Altitude Speed Heading
2026-05-06 18:11 53.63074 10.00378 62 ft 0 kts 93°
2026-05-06 18:26 53.63075 10.00365 62 ft 2 kts 93°
2026-05-06 18:26 53.63076 10.00340 62 ft 2 kts 93°
2026-05-06 18:26 53.63077 10.00314 62 ft 2 kts 93°
2026-05-06 18:26 53.63079 10.00290 62 ft 2 kts 116°
2026-05-06 18:27 53.63088 10.00270 62 ft 2 kts 145°
2026-05-06 18:27 53.63102 10.00261 62 ft 1 kts 173°
2026-05-06 18:27 53.63107 10.00260 62 ft 0 kts 176°
2026-05-06 18:30 53.63084 10.00264 62 ft 5 kts 174°
2026-05-06 18:30 53.63043 10.00234 62 ft 7 kts 212°
2026-05-06 18:30 53.62994 10.00186 62 ft 8 kts 213°
2026-05-06 18:30 53.62938 10.00125 62 ft 10 kts 213°
2026-05-06 18:31 53.62884 10.00061 62 ft 10 kts 220°
2026-05-06 18:31 53.62854 9.99989 62 ft 4 kts 243°
2026-05-06 18:31 53.62848 9.99970 62 ft 0 kts 243°
2026-05-06 18:37 53.62838 9.99938 62 ft 6 kts 243°
2026-05-06 18:37 53.62820 9.99878 62 ft 9 kts 243°
2026-05-06 18:37 53.62804 9.99800 62 ft 3 kts 310°
2026-05-06 18:37 53.62812 9.99792 62 ft 0 kts 334°
2026-05-06 18:38 53.62813 9.99792 62 ft 0 kts 334°
2026-05-06 18:38 53.62812 9.99792 62 ft 0 kts 334°
2026-05-06 18:39 53.62813 9.99792 62 ft 0 kts 334°
2026-05-06 18:39 53.62812 9.99792 62 ft 0 kts 334°
2026-05-06 18:40 53.62813 9.99792 62 ft 0 kts 334°
2026-05-06 18:41 53.62812 9.99792 62 ft 0 kts 334°
2026-05-06 18:41 53.62813 9.99792 62 ft 0 kts 334°
2026-05-06 18:42 53.62812 9.99792 62 ft 0 kts 334°
2026-05-06 18:42 53.62815 9.99790 62 ft 2 kts 334°
2026-05-06 18:43 53.63023 9.99623 62 ft 71 kts 330°
2026-05-06 18:43 53.63678 9.99047 62 ft 138 kts 333°
2026-05-06 18:43 53.64657 9.98192 345 ft 168 kts 335°
2026-05-06 18:43 53.65678 9.97268 1094 ft 168 kts 336°
2026-05-06 18:44 53.66682 9.96360 1858 ft 169 kts 339°
2026-05-06 18:44 53.67764 9.95416 2363 ft 183 kts 339°
2026-05-06 18:44 53.68992 9.94675 2846 ft 194 kts 356°
2026-05-06 18:44 53.70365 9.94572 3395 ft 204 kts
2026-05-06 18:45 53.71806 9.94592 3985 ft 216 kts
2026-05-06 18:45 53.73226 9.95211 4793 ft 213 kts 34°
2026-05-06 18:45 53.74252 9.96985 5451 ft 221 kts 61°
2026-05-06 18:45 53.74701 9.98574 5796 ft 233 kts 65°
2026-05-06 18:46 53.75664 10.02052 6529 ft 255 kts 64°
2026-05-06 18:46 53.76431 10.04759 7264 ft 262 kts 64°
2026-05-06 18:46 53.77221 10.07529 8053 ft 268 kts 64°
2026-05-06 18:46 53.78043 10.10394 8834 ft 274 kts 64°
2026-05-06 18:47 53.78728 10.13414 9557 ft 281 kts 82°
2026-05-06 18:47 53.78498 10.16634 10242 ft 288 kts 113°
2026-05-06 18:47 53.77355 10.19501 10716 ft 303 kts 129°
2026-05-06 18:47 53.75958 10.22266 11092 ft 321 kts 129°
2026-05-06 18:48 53.74518 10.25254 11494 ft 335 kts 127°
2026-05-06 18:48 53.73126 10.28486 12193 ft 341 kts 125°
2026-05-06 18:48 53.71771 10.31708 12877 ft 344 kts 125°
2026-05-06 18:48 53.70392 10.35017 13574 ft 348 kts 124°
2026-05-06 18:49 53.69002 10.38363 14203 ft 353 kts 125°
2026-05-06 18:49 53.67590 10.41770 14830 ft 357 kts 125°
2026-05-06 18:49 53.66162 10.45214 15468 ft 360 kts 125°
2026-05-06 18:49 53.64723 10.48678 16082 ft 363 kts 126°
2026-05-06 18:50 53.63289 10.52126 16695 ft 366 kts 126°
2026-05-06 18:50 53.61818 10.55656 17323 ft 369 kts 126°
2026-05-06 18:50 53.60345 10.59186 17901 ft 371 kts 126°
2026-05-06 18:50 53.58865 10.62725 18471 ft 374 kts 126°
2026-05-06 18:51 53.57351 10.66337 19038 ft 377 kts 127°
2026-05-06 18:51 53.55846 10.69923 19581 ft 380 kts 127°
2026-05-06 18:51 53.54326 10.73541 20112 ft 383 kts 127°
2026-05-06 18:51 53.52796 10.77187 20626 ft 386 kts 127°
2026-05-06 18:52 53.51249 10.80872 21133 ft 388 kts 127°
2026-05-06 18:52 53.49693 10.84577 21638 ft 391 kts 127°
2026-05-06 18:52 53.48118 10.88322 22046 ft 397 kts 127°
2026-05-06 18:52 53.46513 10.92131 22230 ft 407 kts 127°
2026-05-06 18:53 53.44853 10.96067 22417 ft 417 kts 127°
2026-05-06 18:53 53.43161 11.00070 22592 ft 426 kts 127°
2026-05-06 18:53 53.41439 11.04140 22809 ft 433 kts 127°
2026-05-06 18:53 53.39561 11.07999 23479 ft 426 kts 136°
2026-05-06 18:54 53.37426 11.11275 24398 ft 415 kts 140°
2026-05-06 18:54 53.35283 11.14361 25192 ft 408 kts 141°
2026-05-06 18:54 53.33150 11.17459 25692 ft 408 kts 140°
2026-05-06 18:54 53.31023 11.20617 26089 ft 411 kts 140°
2026-05-06 18:55 53.28906 11.23810 26482 ft 414 kts 140°
2026-05-06 18:55 53.26752 11.27083 26875 ft 416 kts 140°
2026-05-06 18:55 53.24620 11.30330 27261 ft 418 kts 139°
2026-05-06 18:55 53.22467 11.33576 27645 ft 419 kts 141°
2026-05-06 18:56 53.20260 11.36713 28007 ft 420 kts 142°
2026-05-06 18:56 53.18023 11.39827 28368 ft 422 kts 142°
2026-05-06 18:56 53.15758 11.42977 28712 ft 424 kts 142°
2026-05-06 18:56 53.13512 11.46114 29035 ft 426 kts 142°
2026-05-06 18:57 53.11247 11.49283 29362 ft 427 kts 142°
2026-05-06 18:57 53.08970 11.52468 29681 ft 429 kts 142°
2026-05-06 18:57 53.06685 11.55665 29977 ft 430 kts 143°
2026-05-06 18:57 53.04400 11.58851 30265 ft 432 kts 143°
2026-05-06 18:58 53.02094 11.62065 30547 ft 434 kts 143°
2026-05-06 18:58 52.99783 11.65282 30792 ft 436 kts 143°
2026-05-06 18:58 52.97444 11.68539 30992 ft 438 kts 144°
2026-05-06 18:58 52.95087 11.71812 31222 ft 440 kts 144°
2026-05-06 18:59 52.92761 11.75033 31444 ft 441 kts 144°
2026-05-06 18:59 52.90402 11.78297 31714 ft 440 kts 144°
2026-05-06 18:59 52.88038 11.81564 32010 ft 439 kts 144°
2026-05-06 18:59 52.85696 11.84797 32297 ft 438 kts 144°
2026-05-06 19:00 52.83355 11.88022 32585 ft 438 kts 144°
2026-05-06 19:00 52.81022 11.91228 32854 ft 437 kts 145°
2026-05-06 19:00 52.78677 11.94447 33117 ft 436 kts 145°
2026-05-06 19:00 52.77101 11.96604 33278 ft 436 kts 145°
2026-05-06 19:01 52.74009 12.00837 33558 ft 436 kts 145°
2026-05-06 19:01 52.71692 12.04006 33768 ft 436 kts 145°
2026-05-06 19:01 52.69338 12.07221 33985 ft 435 kts 145°
2026-05-06 19:01 52.67038 12.10358 34190 ft 435 kts 145°
2026-05-06 19:02 52.64712 12.13525 34374 ft 435 kts 145°
2026-05-06 19:02 52.62374 12.16702 34561 ft 435 kts 145°
2026-05-06 19:02 52.60057 12.19847 34744 ft 435 kts 145°
2026-05-06 19:02 52.57735 12.23001 34936 ft 436 kts 145°
2026-05-06 19:03 52.55399 12.26176 35106 ft 436 kts 145°
2026-05-06 19:03 52.53058 12.29352 35251 ft 437 kts 145°
2026-05-06 19:03 52.50724 12.32515 35396 ft 438 kts 145°
2026-05-06 19:03 52.48381 12.35689 35545 ft 438 kts 145°
2026-05-06 19:04 52.46040 12.38853 35677 ft 439 kts 145°
2026-05-06 19:04 52.43662 12.42065 35823 ft 440 kts 145°
2026-05-06 19:04 52.41319 12.45225 35958 ft 440 kts 145°
2026-05-06 19:04 52.38975 12.48382 36087 ft 440 kts 145°
2026-05-06 19:05 52.36603 12.51571 36193 ft 441 kts 145°
2026-05-06 19:05 52.34248 12.54732 36317 ft 441 kts 145°
2026-05-06 19:05 52.31883 12.57903 36424 ft 442 kts 145°
2026-05-06 19:05 52.29516 12.61073 36529 ft 443 kts 145°
2026-05-06 19:06 52.27113 12.64286 36641 ft 443 kts 145°
2026-05-06 19:06 52.22339 12.70654 36809 ft 444 kts 146°
2026-05-06 19:07 52.17565 12.77006 36815 ft 444 kts 146°
2026-05-06 19:07 52.12784 12.83351 36819 ft 444 kts 146°
2026-05-06 19:08 52.08031 12.89642 36821 ft 444 kts 146°
2026-05-06 19:08 52.03222 12.95982 36816 ft 444 kts 146°
2026-05-06 19:09 51.98439 13.02271 36810 ft 444 kts 146°
2026-05-06 19:09 51.93638 13.08569 36813 ft 445 kts 146°
2026-05-06 19:10 51.88817 13.14874 36817 ft 444 kts 146°
2026-05-06 19:10 51.84037 13.21109 36811 ft 443 kts 146°
2026-05-06 19:11 51.79256 13.27326 36810 ft 443 kts 146°
2026-05-06 19:11 51.74459 13.33548 36809 ft 443 kts 146°
2026-05-06 19:11 51.72048 13.36669 36594 ft 443 kts 146°
2026-05-06 19:12 51.69670 13.39742 36720 ft 443 kts 146°
2026-05-06 19:12 51.64848 13.45956 36785 ft 445 kts 146°
2026-05-06 19:13 51.60011 13.52177 36801 ft 445 kts 146°
2026-05-06 19:13 51.55187 13.58364 36799 ft 445 kts 146°
2026-05-06 19:14 51.50384 13.64508 36794 ft 445 kts 146°
2026-05-06 19:14 51.45522 13.70708 36795 ft 444 kts 147°
2026-05-06 19:15 51.40688 13.76852 36800 ft 445 kts 147°
2026-05-06 19:15 51.35844 13.83000 36795 ft 444 kts 147°
2026-05-06 19:16 51.31011 13.89112 36792 ft 444 kts 147°
2026-05-06 19:16 51.26199 13.95180 36786 ft 443 kts 147°
2026-05-06 19:17 51.21356 14.01270 36784 ft 444 kts 147°
2026-05-06 19:17 51.16509 14.07352 36778 ft 442 kts 147°
2026-05-06 19:18 51.11672 14.13404 36775 ft 444 kts 147°
2026-05-06 19:18 51.06840 14.19434 36777 ft 444 kts 147°
2026-05-06 19:19 51.01997 14.25460 36773 ft 443 kts 147°
2026-05-06 19:19 50.97036 14.31147 36771 ft 438 kts 153°
2026-05-06 19:20 50.91723 14.35712 36772 ft 433 kts 160°
2026-05-06 19:20 50.86105 14.39115 36772 ft 428 kts 168°
2026-05-06 19:21 50.80408 14.41406 36765 ft 425 kts 171°
2026-05-06 19:21 50.74634 14.43563 36777 ft 425 kts 171°
2026-05-06 19:22 50.68910 14.45694 36767 ft 425 kts 171°
2026-05-06 19:22 50.63182 14.47819 36772 ft 424 kts 171°
2026-05-06 19:23 50.57432 14.49944 36775 ft 424 kts 171°
2026-05-06 19:23 50.51752 14.52414 36775 ft 429 kts 165°
2026-05-06 19:24 50.46282 14.56333 36761 ft 436 kts 155°
2026-05-06 19:24 50.41267 14.61668 36776 ft 444 kts 146°
2026-05-06 19:25 50.36688 14.68276 36769 ft 446 kts 142°
2026-05-06 19:25 50.32236 14.75032 36761 ft 447 kts 142°
2026-05-06 19:26 50.27795 14.81741 36764 ft 446 kts 142°
2026-05-06 19:26 50.23332 14.88462 36775 ft 446 kts 142°
2026-05-06 19:27 50.18867 14.95155 36760 ft 448 kts 142°
2026-05-06 19:27 50.14365 15.01886 36758 ft 447 kts 142°
2026-05-06 19:28 50.09887 15.08566 36741 ft 447 kts 142°
2026-05-06 19:28 50.05391 15.15253 36746 ft 447 kts 142°
2026-05-06 19:29 50.00865 15.21970 36734 ft 448 kts 142°
2026-05-06 19:29 49.96349 15.28651 36737 ft 448 kts 142°
2026-05-06 19:30 49.91832 15.35315 36747 ft 449 kts 142°
2026-05-06 19:30 49.87285 15.42005 36744 ft 447 kts 142°
2026-05-06 19:31 49.82785 15.48606 36749 ft 449 kts 142°
2026-05-06 19:31 49.75982 15.58555 36749 ft 449 kts 142°
2026-05-06 19:32 49.71427 15.65192 36741 ft 449 kts 143°
2026-05-06 19:32 49.66874 15.71811 36745 ft 449 kts 143°
2026-05-06 19:33 49.62342 15.78380 36737 ft 449 kts 143°
2026-05-06 19:33 49.60050 15.81698 36586 ft 447 kts 143°
2026-05-06 19:33 49.57815 15.84932 36265 ft 445 kts 143°
2026-05-06 19:34 49.55542 15.88215 35809 ft 446 kts 144°
2026-05-06 19:34 49.53283 15.91466 35201 ft 448 kts 144°
2026-05-06 19:34 49.51039 15.94697 34522 ft 450 kts 144°
2026-05-06 19:34 49.48740 15.97996 33745 ft 451 kts 144°
2026-05-06 19:35 49.46455 16.01270 32978 ft 452 kts 144°
2026-05-06 19:35 49.44159 16.04558 32211 ft 452 kts 143°
2026-05-06 19:35 49.41873 16.07826 31409 ft 454 kts 143°
2026-05-06 19:35 49.39584 16.11099 30594 ft 455 kts 143°
2026-05-06 19:36 49.37266 16.14414 29760 ft 456 kts 142°
2026-05-06 19:36 49.34942 16.17729 28899 ft 457 kts 142°
2026-05-06 19:36 49.32580 16.20922 28071 ft 453 kts 147°
2026-05-06 19:36 49.30096 16.23689 27555 ft 442 kts 152°
2026-05-06 19:37 49.27463 16.26067 27058 ft 434 kts 158°
2026-05-06 19:37 49.24789 16.28106 26547 ft 429 kts 159°
2026-05-06 19:37 49.22129 16.30075 26027 ft 425 kts 159°
2026-05-06 19:37 49.20370 16.31369 25673 ft 423 kts 159°
2026-05-06 19:38 49.16850 16.33960 24956 ft 418 kts 159°
2026-05-06 19:38 49.14244 16.35879 24411 ft 414 kts 159°
2026-05-06 19:38 49.11694 16.37754 23886 ft 410 kts 159°
2026-05-06 19:38 49.09154 16.39622 23354 ft 406 kts 159°
2026-05-06 19:39 49.06625 16.41485 22819 ft 403 kts 159°
2026-05-06 19:39 49.04119 16.43327 22288 ft 399 kts 159°
2026-05-06 19:39 49.01640 16.45147 21750 ft 396 kts 159°
2026-05-06 19:39 48.99160 16.46966 21089 ft 394 kts 159°
2026-05-06 19:40 48.96712 16.48757 20403 ft 394 kts 159°
2026-05-06 19:40 48.94239 16.50565 19664 ft 394 kts 158°
2026-05-06 19:40 48.91759 16.52377 18913 ft 395 kts 158°
2026-05-06 19:40 48.89311 16.54167 18173 ft 395 kts 158°
2026-05-06 19:41 48.86838 16.55971 17431 ft 395 kts 158°
2026-05-06 19:41 48.84367 16.57771 16866 ft 390 kts 158°
2026-05-06 19:41 48.81952 16.59531 16395 ft 383 kts 158°
2026-05-06 19:41 48.79547 16.61156 15927 ft 375 kts 162°
2026-05-06 19:42 48.77138 16.62401 15516 ft 366 kts 167°
2026-05-06 19:42 48.74703 16.63313 15134 ft 357 kts 170°
2026-05-06 19:42 48.72304 16.64110 14783 ft 350 kts 170°
2026-05-06 19:42 48.69958 16.64882 14522 ft 340 kts 170°
2026-05-06 19:43 48.67668 16.65633 14384 ft 331 kts 171°
2026-05-06 19:43 48.65403 16.66377 14220 ft 327 kts 171°
2026-05-06 19:43 48.63241 16.67087 14050 ft 316 kts 171°
2026-05-06 19:43 48.61120 16.67785 13937 ft 304 kts 171°
2026-05-06 19:44 48.59097 16.68450 13826 ft 292 kts 171°
2026-05-06 19:44 48.57149 16.69079 13742 ft 279 kts 173°
2026-05-06 19:44 48.55302 16.69031 13716 ft 257 kts 202°
2026-05-06 19:44 48.53907 16.67604 13732 ft 240 kts 230°
2026-05-06 19:45 48.53092 16.65433 13741 ft 241 kts 251°
2026-05-06 19:45 48.52930 16.62883 13748 ft 247 kts 275°
2026-05-06 19:45 48.53502 16.60430 13746 ft 256 kts 299°
2026-05-06 19:45 48.54787 16.58520 13744 ft 267 kts 327°
2026-05-06 19:46 48.56551 16.57600 13761 ft 274 kts 345°
2026-05-06 19:46 48.58430 16.57052 13758 ft 275 kts 346°
2026-05-06 19:46 48.60313 16.56513 13751 ft 275 kts 346°
2026-05-06 19:46 48.62198 16.55958 13751 ft 275 kts 345°
2026-05-06 19:47 48.64085 16.55483 13743 ft 277 kts 356°
2026-05-06 19:47 48.65961 16.56153 13737 ft 283 kts 31°
2026-05-06 19:47 48.67350 16.58180 13746 ft 281 kts 63°
2026-05-06 19:47 48.67900 16.60937 13746 ft 274 kts 94°
2026-05-06 19:48 48.67525 16.63680 13749 ft 264 kts 123°
2026-05-06 19:48 48.66400 16.65769 13754 ft 253 kts 150°
2026-05-06 19:48 48.64834 16.66848 13758 ft 245 kts 172°
2026-05-06 19:48 48.63175 16.67319 13753 ft 245 kts 173°
2026-05-06 19:49 48.61493 16.67790 13749 ft 245 kts 173°
2026-05-06 19:49 48.59835 16.68276 13751 ft 245 kts 173°
2026-05-06 19:49 48.58160 16.68781 13749 ft 245 kts 173°
2026-05-06 19:49 48.56475 16.69197 13538 ft 243 kts 184°
2026-05-06 19:50 48.54893 16.68566 13283 ft 236 kts 212°
2026-05-06 19:50 48.53690 16.66933 13037 ft 236 kts 235°
2026-05-06 19:50 48.53032 16.64663 12788 ft 239 kts 257°
2026-05-06 19:50 48.53060 16.62150 12545 ft 246 kts 281°
2026-05-06 19:51 48.53825 16.59823 12290 ft 254 kts 306°
2026-05-06 19:51 48.55246 16.58188 12036 ft 264 kts 334°
2026-05-06 19:51 48.57013 16.57475 11807 ft 267 kts 345°
2026-05-06 19:51 48.58851 16.56943 11554 ft 266 kts 346°
2026-05-06 19:52 48.60643 16.56424 11307 ft 265 kts 346°
2026-05-06 19:52 48.62448 16.55887 11061 ft 263 kts 346°
2026-05-06 19:52 48.64264 16.55481 10805 ft 266 kts
2026-05-06 19:52 48.66023 16.56232 10552 ft 268 kts 33°
2026-05-06 19:53 48.67334 16.58197 10306 ft 264 kts 64°
2026-05-06 19:53 48.67871 16.60785 10059 ft 256 kts 92°
2026-05-06 19:53 48.67594 16.63349 9814 ft 246 kts 119°
2026-05-06 19:53 48.66637 16.65418 9572 ft 238 kts 144°
2026-05-06 19:54 48.65237 16.66647 9333 ft 233 kts 167°
2026-05-06 19:54 48.63649 16.67165 9086 ft 232 kts 172°
2026-05-06 19:54 48.62067 16.67618 8840 ft 232 kts 172°
2026-05-06 19:54 48.60487 16.68084 8597 ft 232 kts 172°
2026-05-06 19:55 48.58899 16.68565 8350 ft 231 kts 172°
2026-05-06 19:55 48.57340 16.69041 8108 ft 231 kts 172°
2026-05-06 19:55 48.55781 16.69605 7960 ft 231 kts 171°
2026-05-06 19:55 48.54215 16.70171 7718 ft 231 kts 171°
2026-05-06 19:56 48.52652 16.70745 7473 ft 231 kts 171°
2026-05-06 19:56 48.51090 16.71319 7228 ft 230 kts 171°
2026-05-06 19:56 48.49539 16.71889 6982 ft 228 kts 171°
2026-05-06 19:56 48.48002 16.72450 6728 ft 227 kts 171°
2026-05-06 19:57 48.46463 16.73015 6484 ft 226 kts 171°
2026-05-06 19:57 48.44937 16.73569 6241 ft 226 kts 171°
2026-05-06 19:57 48.43416 16.74124 6030 ft 224 kts 171°
2026-05-06 19:57 48.41919 16.74672 5996 ft 223 kts 172°
2026-05-06 19:58 48.40409 16.75220 5990 ft 223 kts 173°
2026-05-06 19:58 48.38896 16.75214 5973 ft 215 kts 205°
2026-05-06 19:58 48.37727 16.73867 5986 ft 214 kts 233°
2026-05-06 19:58 48.37119 16.71845 5986 ft 217 kts 257°
2026-05-06 19:59 48.36936 16.69581 5984 ft 218 kts 261°
2026-05-06 19:59 48.36775 16.67401 5970 ft 205 kts 260°
2026-05-06 19:59 48.36713 16.65260 5975 ft 205 kts 272°
2026-05-06 19:59 48.37052 16.63159 5982 ft 210 kts 288°
2026-05-06 20:00 48.37795 16.61268 5984 ft 216 kts 305°
2026-05-06 20:00 48.39001 16.59854 5974 ft 228 kts 335°
2026-05-06 20:00 48.40586 16.59603 5988 ft 238 kts
2026-05-06 20:00 48.42215 16.60183 5999 ft 240 kts 14°
2026-05-06 20:01 48.43799 16.60924 5992 ft 241 kts 15°
2026-05-06 20:01 48.45409 16.61715 5986 ft 240 kts 15°
2026-05-06 20:01 48.46982 16.62492 5986 ft 240 kts 13°
2026-05-06 20:01 48.48623 16.62890 5984 ft 237 kts 359°
2026-05-06 20:02 48.50267 16.62963 5980 ft 237 kts 356°
2026-05-06 20:02 48.51914 16.62968 5975 ft 236 kts 356°
2026-05-06 20:02 48.53574 16.62955 5974 ft 236 kts 352°
2026-05-06 20:02 48.55121 16.62375 5882 ft 225 kts 322°
2026-05-06 20:03 48.56299 16.60905 5777 ft 218 kts 309°
2026-05-06 20:03 48.57260 16.59198 5643 ft 212 kts 291°
2026-05-06 20:03 48.57626 16.57101 5524 ft 204 kts 270°
2026-05-06 20:03 48.57661 16.54975 5395 ft 201 kts 258°
2026-05-06 20:04 48.57101 16.53153 5245 ft 190 kts 223°
2026-05-06 20:04 48.55990 16.52220 5129 ft 181 kts 201°
2026-05-06 20:04 48.54791 16.51725 4999 ft 174 kts 197°
2026-05-06 20:04 48.53623 16.51313 4980 ft 173 kts 202°
2026-05-06 20:05 48.52535 16.50537 4979 ft 172 kts 213°
2026-05-06 20:05 48.51529 16.49578 4980 ft 172 kts 215°
2026-05-06 20:05 48.50563 16.48608 4961 ft 162 kts 216°
2026-05-06 20:05 48.49637 16.47668 4970 ft 160 kts 216°
2026-05-06 20:06 48.48696 16.46721 4976 ft 161 kts 216°
2026-05-06 20:06 48.47768 16.45800 4977 ft 160 kts 216°
2026-05-06 20:06 48.46817 16.44921 4972 ft 163 kts 202°
2026-05-06 20:06 48.45696 16.44583 4983 ft 166 kts 192°
2026-05-06 20:07 48.44540 16.44489 4980 ft 168 kts 184°
2026-05-06 20:07 48.43357 16.44661 4977 ft 171 kts 178°
2026-05-06 20:07 48.42197 16.45033 4981 ft 173 kts 173°
2026-05-06 20:07 48.41036 16.45516 4982 ft 172 kts 171°
2026-05-06 20:08 48.39883 16.46016 4981 ft 171 kts 171°
2026-05-06 20:08 48.38738 16.46512 4980 ft 171 kts 171°
2026-05-06 20:08 48.37587 16.47007 4980 ft 172 kts 171°
2026-05-06 20:08 48.36432 16.47500 5059 ft 173 kts 171°
2026-05-06 20:09 48.35269 16.47994 5020 ft 173 kts 171°
2026-05-06 20:09 48.34117 16.48482 4954 ft 174 kts 171°
2026-05-06 20:09 48.32949 16.48976 4746 ft 173 kts 172°
2026-05-06 20:09 48.31793 16.49466 4519 ft 171 kts 173°
2026-05-06 20:10 48.30656 16.49948 4297 ft 169 kts 173°
2026-05-06 20:10 48.29533 16.50421 4076 ft 168 kts 173°
2026-05-06 20:10 48.28408 16.50895 3857 ft 168 kts 174°
2026-05-06 20:10 48.27284 16.51369 3636 ft 166 kts 173°
2026-05-06 20:11 48.26183 16.51834 3418 ft 164 kts 174°
2026-05-06 20:11 48.25095 16.52294 3200 ft 163 kts 174°
2026-05-06 20:11 48.24012 16.52752 2981 ft 157 kts 173°
2026-05-06 20:11 48.22983 16.53187 2778 ft 151 kts 172°
2026-05-06 20:12 48.21985 16.53607 2576 ft 148 kts 172°
2026-05-06 20:12 48.21003 16.54018 2397 ft 148 kts 172°
2026-05-06 20:12 48.20010 16.54434 2210 ft 149 kts 172°
2026-05-06 20:12 48.19046 16.54845 2026 ft 138 kts 171°
2026-05-06 20:13 48.18150 16.55227 1819 ft 130 kts 171°
2026-05-06 20:13 48.17296 16.55583 1643 ft 129 kts 171°
2026-05-06 20:13 48.16427 16.55938 1511 ft 129 kts 171°
2026-05-06 20:13 48.15557 16.56289 1373 ft 129 kts 169°
2026-05-06 20:14 48.14692 16.56673 1184 ft 129 kts 167°
2026-05-06 20:14 48.13831 16.57042 1016 ft 128 kts 167°
2026-05-06 20:14 48.12981 16.57400 832 ft 128 kts 165°
2026-05-06 20:14 48.12122 16.57760 666 ft 127 kts 165°
2026-05-06 20:15 48.11319 16.58097 605 ft 103 kts 165°
2026-05-06 20:15 48.10786 16.58321 609 ft 59 kts 165°
2026-05-06 20:15 48.10454 16.58458 611 ft 38 kts 171°
2026-05-06 20:15 48.10218 16.58435 612 ft 24 kts 195°
2026-05-06 20:16 48.10107 16.58357 613 ft 15 kts 237°
2026-05-06 20:16 48.10089 16.58251 614 ft 9 kts 267°
2026-05-06 20:16 48.10131 16.58184 615 ft 10 kts 343°
2026-05-06 20:16 48.10206 16.58149 614 ft 12 kts 345°
2026-05-06 20:17 48.10263 16.58127 614 ft 4 kts 346°
2026-05-06 20:17 48.10296 16.58113 614 ft 6 kts 344°
2026-05-06 20:17 48.10329 16.58099 614 ft 5 kts 344°
2026-05-06 20:17 48.10377 16.58079 614 ft 8 kts 345°
2026-05-06 20:18 48.10437 16.58050 613 ft 9 kts 343°
2026-05-06 20:18 48.10509 16.58022 613 ft 11 kts 345°
2026-05-06 20:18 48.10598 16.57985 612 ft 14 kts 344°
2026-05-06 20:18 48.10699 16.57942 611 ft 15 kts 345°
2026-05-06 20:19 48.10809 16.57896 610 ft 16 kts 344°
2026-05-06 20:19 48.10924 16.57847 609 ft 17 kts 345°
2026-05-06 20:19 48.11030 16.57794 608 ft 15 kts 322°
2026-05-06 20:19 48.11084 16.57660 608 ft 14 kts 296°
2026-05-06 20:20 48.11127 16.57523 607 ft 14 kts 296°
2026-05-06 20:20 48.11170 16.57392 607 ft 13 kts 295°
2026-05-06 20:20 48.11216 16.57286 606 ft 10 kts 337°
2026-05-06 20:20 48.11271 16.57311 606 ft 6 kts 25°
2026-05-06 20:21 48.11324 16.57342 605 ft 9 kts 25°
2026-05-06 20:21 48.11393 16.57390 605 ft 11 kts 13°
2026-05-06 20:21 48.11438 16.57373 604 ft 1 kts 14°
2026-05-06 20:21 48.11456 16.57420 604 ft 6 kts 63°
2026-05-06 20:22 48.11500 16.57465 603 ft 9 kts 12°
2026-05-06 20:22 48.11573 16.57435 603 ft 12 kts 322°
2026-05-06 20:22 48.11612 16.57344 602 ft 8 kts 295°
2026-05-06 20:22 48.11630 16.57264 602 ft 7 kts 251°
2026-05-06 20:23 48.11594 16.57236 602 ft 0 kts 207°